Location: Unspecified
(51.0950°N, 12.9690°E)
Time: 01:40:24
(UTC+00:00)

First-Move - Pass Details

Date: 03 May 2024
Orbit: 538 x 600 km, 97.7° (Epoch: 20 May)

Event Time Altitude Azimuth Distance (km) Brightness Sun altitude
Rises 02:45:59 0° 13° (NNE) 2,875 ? -7.6°
Reaches altitude 10° 02:48:10 10° 14° (NNE) 1,965 ? -7.4°
Maximum altitude 02:52:28 89° 103° (ESE) 610 ? -6.8°
Drops below altitude 10° 02:56:41 10° 195° (SSW) 1,932 ? -6.3°
Enters shadow 02:58:46 - 196° (SSW) 2,801 ? -6.0°
